Location: Orange
(40.7703°N, 74.2325°W)
Time: 03:21:06
(UTC+00:00)

X-37B - Visible Passes

Search period start: 30 November 2022 00:00
Search period end: 10 December 2022 00:00
Orbit: 277 x 277 km, 45.0° (Epoch: 01 November)

Date Brightness Start Highest point End Pass type
(mag) Time Alt. Az. Time Alt. Az. Time Alt. Az.
05 Dec 3.2 23:30:52 10° SW 23:31:11 12° SW 23:31:11 12° SW visible
06 Dec 3.0 23:31:19 10° WSW 23:32:02 17° SW 23:32:02 17° SW visible
07 Dec 2.3 21:58:58 10° S 22:00:29 15° SE 22:01:59 10° ESE visible
07 Dec 3.0 23:31:59 10° WSW 23:32:48 18° WSW 23:32:48 18° WSW visible
08 Dec 1.4 21:58:53 10° SSW 22:01:01 27° SSE 22:03:11 10° E visible
08 Dec 3.0 23:32:46 10° W 23:33:32 17° W 23:33:32 17° W visible
09 Dec 0.4 21:59:14 10° SW 22:01:38 51° SSE 22:04:02 10° ENE visible
09 Dec 3.1 23:33:37 10° WNW 23:34:13 15° WNW 23:34:13 15° WNW visible
